Weather History for KLOZ - June, 2013

Change the Weather History Date:

Tuesday, June 18, 2013

  Actual Average Record
Temperature  
Mean Temperature 70 °F 74 °F  
Max Temperature 77 °F 84 °F 93 °F (2014)
Min Temperature 63 °F 63 °F 48 °F (1999)
Degree Days  
Heating Degree Days 0 0  
Month to date heating degree days 0 7  
Since 1 June heating degree days 0 7  
Since 1 July heating degree days 4531 4203  
Cooling Degree Days 5 9  
Month to date cooling degree days 121 124  
Year to date cooling degree days 221 238  
Since 1 June cooling degree days 121 124  
Growing Degree Days 18 (Base 50)    
Moisture  
Dew Point 63 °F    
Average Humidity 79    
Maximum Humidity 93    
Minimum Humidity 64    
Precipitation  
Precipitation 1.05 in 0.14 in 1.88 in (1992)
Month to date precipitation 4.78 2.73  
Year to date precipitation 27.79 23.26  
Sea Level Pressure  
Sea Level Pressure 29.92 in    
Wind  
Wind Speed 4 mph (NE)    
Max Wind Speed 17 mph    
Max Gust Speed 22 mph    
Visibility 8 miles    
Events Rain    
T = Trace of Precipitation, MM = Missing Value Source: NWS Daily Summary

Daily Weather History Graph

Daily Weather History Graph

Search for Another Location

Airport or City:

Trip Planner

Search our weather history database for the weather conditions in past years. The results will help you decide how hot, cold, wet, or windy it might be!

Date:

Astronomy

Jun. 18, 2013 Rise Set
Actual Time 6:16 AM EDT 8:58 PM EDT
Civil Twilight 5:45 AM EDT 9:29 PM EDT
Nautical Twilight 5:06 AM EDT 10:08 PM EDT
Astronomical Twilight 4:23 AM EDT 10:51 PM EDT
Moon 3:47 PM EDT (6/18) 2:17 AM EDT (6/18)
Length of Visible Light 15h 44m
Length of Day
14h 42m
Waxing Gibbous, 70% of the Moon is Illuminated
Jun 18
Waxing Gibbous
Jun 23
Full
Jun 30
Last Quarter
Jul 8
New
Jul 15
First Quarter

Hourly Weather History & Observations

Time (EDT) Temp. Dew Point Humidity Pressure Visibility Wind Dir Wind Speed Gust Speed Precip Events Conditions
12:53 AM 69.1 °F 63.0 °F 81% 29.91 in 10.0 mi ENE 10.4 mph 18.4 mph N/A   Overcast
1:07 AM 66.2 °F 64.4 °F 94% 29.96 in 1.8 mi SSE 4.6 mph - 0.27 in Rain Heavy Rain
1:12 AM 66.2 °F 64.4 °F 94% 29.96 in 0.8 mi SSW 3.5 mph - 0.44 in Rain Heavy Rain
1:28 AM 66.2 °F 64.4 °F 94% 29.94 in 2.0 mi Calm Calm - 0.66 in Rain Rain
1:36 AM 66.2 °F 64.4 °F 94% 29.94 in 5.0 mi East 4.6 mph - 0.66 in Rain Light Rain
1:53 AM 66.9 °F 64.0 °F 90% 29.89 in 10.0 mi East 6.9 mph - 0.67 in Rain Light Rain
2:53 AM 66.0 °F 64.0 °F 93% 29.88 in 8.0 mi SE 3.5 mph - 0.07 in Rain Light Rain
3:53 AM 64.9 °F 63.0 °F 93% 29.87 in 10.0 mi Calm Calm - 0.00 in   Overcast
4:53 AM 64.9 °F 63.0 °F 93% 29.87 in 7.0 mi Calm Calm - 0.02 in Rain Light Rain
5:12 AM 64.4 °F 62.6 °F 94% 29.92 in 2.0 mi Calm Calm - 0.10 in Rain Heavy Rain
5:23 AM 64.4 °F 62.6 °F 94% 29.92 in 7.0 mi Calm Calm - 0.10 in Rain Light Rain
5:53 AM 64.0 °F 62.1 °F 93% 29.89 in 8.0 mi North 4.6 mph - 0.12 in Rain Light Rain
6:53 AM 63.0 °F 61.0 °F 93% 29.90 in 6.0 mi Variable 3.5 mph - 0.06 in Rain Light Rain
7:53 AM 63.0 °F 61.0 °F 93% 29.89 in 7.0 mi NE 5.8 mph - 0.05 in Rain Light Rain
8:04 AM 62.6 °F 60.8 °F 94% 29.92 in 7.0 mi ENE 4.6 mph - 0.01 in Rain Light Rain
8:32 AM 62.6 °F 60.8 °F 94% 29.92 in 10.0 mi East 4.6 mph - 0.03 in Rain Light Rain
8:53 AM 63.0 °F 61.0 °F 93% 29.89 in 10.0 mi East 3.5 mph - 0.03 in Rain Light Rain
9:53 AM 64.0 °F 62.1 °F 93% 29.91 in 9.0 mi NE 3.5 mph - 0.05 in Rain Light Rain
10:45 AM 64.4 °F 62.6 °F 94% 29.94 in 10.0 mi North 8.1 mph - 0.00 in   Overcast
10:53 AM 64.0 °F 62.1 °F 93% 29.92 in 10.0 mi North 6.9 mph - 0.00 in   Overcast
11:13 AM 64.4 °F 62.6 °F 94% 29.95 in 6.0 mi NNE 12.7 mph - 0.01 in Rain Light Rain
11:44 AM 64.4 °F 62.6 °F 94% 29.96 in 7.0 mi NNE 11.5 mph - 0.01 in   Overcast
11:53 AM 64.9 °F 62.1 °F 90% 29.93 in 9.0 mi NNE 13.8 mph 18.4 mph 0.01 in   Overcast
12:06 PM 64.4 °F 62.6 °F 94% 29.96 in 10.0 mi NNE 15.0 mph 21.9 mph N/A   Overcast
12:21 PM 66.2 °F 62.6 °F 88% 29.96 in 10.0 mi NNE 9.2 mph 19.6 mph N/A   Overcast
12:31 PM 66.2 °F 62.6 °F 88% 29.95 in 10.0 mi NE 8.1 mph 16.1 mph N/A   Overcast
12:53 PM 69.1 °F 62.1 °F 78% 29.92 in 10.0 mi NE 9.2 mph - N/A   Overcast
1:53 PM 71.1 °F 62.1 °F 73% 29.92 in 10.0 mi Variable 3.5 mph - 0.00 in   Mostly Cloudy
2:53 PM 73.0 °F 63.0 °F 71% 29.91 in 10.0 mi Variable 3.5 mph - 0.00 in   Overcast
3:13 PM 73.4 °F 62.6 °F 69% 29.95 in 10.0 mi NNE 9.2 mph - N/A   Mostly Cloudy
3:35 PM 73.4 °F 62.6 °F 69% 29.95 in 10.0 mi North 9.2 mph - N/A   Mostly Cloudy
3:53 PM 73.9 °F 63.0 °F 68% 29.92 in 10.0 mi NNE 6.9 mph - N/A   Overcast
4:53 PM 75.0 °F 63.0 °F 66% 29.91 in 10.0 mi Variable 5.8 mph - N/A   Scattered Clouds
5:53 PM 75.9 °F 62.1 °F 62% 29.90 in 10.0 mi Variable 6.9 mph - N/A   Clear
6:53 PM 75.9 °F 62.1 °F 62% 29.88 in 10.0 mi Variable 3.5 mph - N/A   Clear
7:53 PM 73.9 °F 62.1 °F 66% 29.89 in 10.0 mi Calm Calm - N/A   Clear
8:53 PM 71.1 °F 64.0 °F 78% 29.92 in 10.0 mi Calm Calm - N/A   Clear
9:53 PM 68.0 °F 64.9 °F 90% 29.95 in 10.0 mi Calm Calm - N/A   Clear
10:53 PM 66.0 °F 64.0 °F 93% 29.98 in 9.0 mi Calm Calm - N/A   Clear
11:53 PM 66.9 °F 63.0 °F 87% 29.98 in 10.0 mi North 5.8 mph - N/A   Partly Cloudy